When you browse on this site, cookies collect data to enhance your experience and personalize the content and advertising you see.
Visit our Privacy Policy to learn more. By continuing to use the site, you agree to this use of cookies and data.
  • Em Portugal
  • Lista de países
  • Para 7 dias
  • Temperatura da água
  • Mapas de satélite
  • Mapa do tempo
  • Widgets de tempo
  • user-avatar
    Iniciar Sessão

    Previsão horária em Coleraine

    Hoje, 20 Julho, Sábado

    Tempo Temperatura Precipitação Vento Pressão Humidade
    00:00 +14°C° 0 mm 2 m/s 747 mmHg 97%
    01:00 +13°C° 0.8 mm 3 m/s 747 mmHg 97%
    02:00 +13°C° 0.8 mm 3 m/s 747 mmHg 96%
    03:00 +13°C° 0.8 mm 4 m/s 747 mmHg 96%
    04:00 +13°C° 0 mm 5 m/s 748 mmHg 95%
    05:00 +13°C° 0 mm 5 m/s 748 mmHg 94%
    06:00 +13°C° 0 mm 5 m/s 749 mmHg 94%
    07:00 +13°C° 0 mm 5 m/s 749 mmHg 89%
    08:00 +14°C° 0 mm 5 m/s 750 mmHg 85%
    09:00 +15°C° 0 mm 6 m/s 751 mmHg 80%
    10:00 +15°C° 0 mm 5 m/s 751 mmHg 77%
    11:00 +16°C° 0 mm 5 m/s 751 mmHg 73%
    12:00 +17°C° 0 mm 5 m/s 752 mmHg 70%
    13:00 +17°C° 0 mm 5 m/s 752 mmHg 71%
    14:00 +17°C° 0 mm 5 m/s 753 mmHg 71%
    15:00 +18°C° 0 mm 4 m/s 754 mmHg 72%
    16:00 +18°C° 0 mm 4 m/s 754 mmHg 74%
    17:00 +18°C° 0 mm 3 m/s 754 mmHg 75%
    18:00 +18°C° 0 mm 3 m/s 754 mmHg 76%
    19:00 +17°C° 0.1 mm 3 m/s 755 mmHg 79%
    20:00 +16°C° 0.1 mm 3 m/s 755 mmHg 82%
    21:00 +15°C° 0.1 mm 2 m/s 756 mmHg 85%
    22:00 +15°C° 0 mm 2 m/s 756 mmHg 87%
    23:00 +14°C° 0 mm 3 m/s 756 mmHg 88%

    Amanhã, 21 Julho, Domingo

    Tempo Temperatura Precipitação Vento Pressão Humidade
    00:00 +13°C° 0 mm 3 m/s 756 mmHg 90%
    01:00 +13°C° 0 mm 3 m/s 756 mmHg 91%
    02:00 +13°C° 0 mm 3 m/s 757 mmHg 91%
    03:00 +12°C° 0 mm 3 m/s 757 mmHg 92%
    04:00 +13°C° 0 mm 3 m/s 757 mmHg 92%
    05:00 +13°C° 0 mm 3 m/s 757 mmHg 92%
    06:00 +13°C° 0 mm 3 m/s 757 mmHg 91%
    07:00 +14°C° 0 mm 4 m/s 757 mmHg 90%
    08:00 +14°C° 0 mm 4 m/s 757 mmHg 89%
    09:00 +15°C° 0 mm 5 m/s 758 mmHg 87%
    10:00 +15°C° 0.9 mm 5 m/s 757 mmHg 89%
    11:00 +15°C° 0.9 mm 5 m/s 757 mmHg 92%
    12:00 +15°C° 0.9 mm 6 m/s 757 mmHg 94%
    13:00 +15°C° 0.7 mm 6 m/s 757 mmHg 94%
    14:00 +15°C° 0.7 mm 5 m/s 756 mmHg 95%
    15:00 +16°C° 0.7 mm 5 m/s 756 mmHg 95%
    16:00 +16°C° 1.4 mm 5 m/s 755 mmHg 96%
    17:00 +16°C° 1.4 mm 5 m/s 755 mmHg 96%
    18:00 +16°C° 1.4 mm 5 m/s 754 mmHg 97%
    19:00 +16°C° 1.1 mm 5 m/s 754 mmHg 96%
    20:00 +17°C° 1.1 mm 6 m/s 753 mmHg 96%
    21:00 +17°C° 1.1 mm 6 m/s 753 mmHg 96%
    22:00 +17°C° 0.6 mm 6 m/s 753 mmHg 95%
    23:00 +17°C° 0.6 mm 7 m/s 753 mmHg 95%

    Depois de amanhã, 22 Julho, Segunda-feira

    Tempo Temperatura Precipitação Vento Pressão Humidade
    00:00 +18°C° 0.6 mm 7 m/s 753 mmHg 94%
    01:00 +17°C° 0 mm 7 m/s 753 mmHg 94%
    02:00 +17°C° 0 mm 7 m/s 753 mmHg 93%
    03:00 +17°C° 0 mm 8 m/s 753 mmHg 92%
    04:00 +17°C° 0 mm 8 m/s 753 mmHg 91%
    05:00 +17°C° 0 mm 8 m/s 753 mmHg 90%
    06:00 +17°C° 0 mm 8 m/s 753 mmHg 89%
    07:00 +18°C° 0 mm 8 m/s 754 mmHg 87%
    08:00 +20°C° 0 mm 8 m/s 754 mmHg 85%
    09:00 +20°C° 0 mm 8 m/s 755 mmHg 83%
    10:00 +21°C° 0 mm 8 m/s 755 mmHg 83%
    11:00 +21°C° 0 mm 8 m/s 756 mmHg 83%
    12:00 +21°C° 0 mm 7 m/s 756 mmHg 82%
    13:00 +22°C° 0 mm 7 m/s 756 mmHg 82%
    14:00 +22°C° 0 mm 7 m/s 757 mmHg 81%
    15:00 +22°C° 0 mm 7 m/s 757 mmHg 81%
    16:00 +22°C° 0 mm 7 m/s 757 mmHg 81%
    17:00 +22°C° 0 mm 7 m/s 757 mmHg 81%
    18:00 +21°C° 0 mm 6 m/s 757 mmHg 81%
    19:00 +21°C° 0 mm 6 m/s 758 mmHg 83%
    20:00 +20°C° 0 mm 5 m/s 758 mmHg 84%
    21:00 +19°C° 0 mm 5 m/s 759 mmHg 85%
    22:00 +17°C° 0 mm 5 m/s 759 mmHg 88%
    23:00 +18°C° 0 mm 4 m/s 759 mmHg 90%

    23 Julho, Terça-feira

    Tempo Temperatura Precipitação Vento Pressão Humidade
    00:00 +17°C° 0 mm 4 m/s 759 mmHg 93%
    01:00 +17°C° 0 mm 4 m/s 759 mmHg 94%
    02:00 +17°C° 0 mm 4 m/s 759 mmHg 95%
    03:00 +15°C° 0 mm 4 m/s 759 mmHg 96%
    04:00 +15°C° 0 mm 4 m/s 759 mmHg 96%
    05:00 +15°C° 0 mm 4 m/s 759 mmHg 95%
    06:00 +15°C° 0 mm 4 m/s 759 mmHg 94%
    07:00 +17°C° 0 mm 4 m/s 759 mmHg 92%
    08:00 +17°C° 0 mm 5 m/s 759 mmHg 90%
    09:00 +19°C° 0 mm 5 m/s 759 mmHg 88%
    10:00 +20°C° 0 mm 5 m/s 759 mmHg 84%
    11:00 +21°C° 0 mm 5 m/s 759 mmHg 81%
    12:00 +23°C° 0 mm 5 m/s 759 mmHg 78%
    13:00 +23°C° 0 mm 5 m/s 758 mmHg 77%
    14:00 +23°C° 0 mm 5 m/s 758 mmHg 77%
    15:00 +24°C° 0 mm 6 m/s 757 mmHg 77%
    16:00 +23°C° 0 mm 6 m/s 757 mmHg 78%
    17:00 +22°C° 0 mm 6 m/s 757 mmHg 80%
    18:00 +22°C° 0 mm 6 m/s 756 mmHg 81%
    19:00 +20°C° 0 mm 5 m/s 756 mmHg 84%
    20:00 +19°C° 0 mm 4 m/s 756 mmHg 87%
    21:00 +18°C° 0 mm 4 m/s 756 mmHg 90%
    22:00 +17°C° 0 mm 4 m/s 756 mmHg 91%
    23:00 +17°C° 0 mm 4 m/s 755 mmHg 91%

    24 Julho, Quarta-feira

    Tempo Temperatura Precipitação Vento Pressão Humidade
    00:00 +16°C° 0 mm 3 m/s 755 mmHg 92%
    01:00 +17°C° 0 mm 3 m/s 755 mmHg 91%
    02:00 +17°C° 0 mm 3 m/s 755 mmHg 90%
    03:00 +17°C° 0 mm 3 m/s 754 mmHg 89%
    04:00 +17°C° 0 mm 3 m/s 754 mmHg 89%
    05:00 +17°C° 0 mm 3 m/s 754 mmHg 90%
    06:00 +17°C° 0 mm 3 m/s 754 mmHg 90%
    07:00 +18°C° 0 mm 3 m/s 754 mmHg 89%
    08:00 +19°C° 0 mm 3 m/s 754 mmHg 87%
    09:00 +19°C° 0 mm 3 m/s 755 mmHg 85%
    10:00 +20°C° 0 mm 4 m/s 755 mmHg 83%
    11:00 +21°C° 0 mm 4 m/s 755 mmHg 80%
    12:00 +22°C° 0 mm 4 m/s 755 mmHg 78%
    13:00 +21°C° 0.4 mm 4 m/s 755 mmHg 81%
    14:00 +20°C° 0.4 mm 3 m/s 754 mmHg 85%
    15:00 +20°C° 0.4 mm 3 m/s 754 mmHg 88%
    16:00 +20°C° 0.1 mm 3 m/s 754 mmHg 88%
    17:00 +20°C° 0.1 mm 3 m/s 754 mmHg 88%
    18:00 +20°C° 0.1 mm 3 m/s 754 mmHg 88%
    19:00 +19°C° 0.1 mm 3 m/s 754 mmHg 90%
    20:00 +18°C° 0.1 mm 3 m/s 754 mmHg 92%
    21:00 +17°C° 0.1 mm 3 m/s 754 mmHg 94%
    22:00 +17°C° 0 mm 3 m/s 754 mmHg 93%
    23:00 +16°C° 0 mm 3 m/s 754 mmHg 93%

    25 Julho, Quinta-feira

    Tempo Temperatura Precipitação Vento Pressão Humidade
    00:00 +16°C° 0 mm 2 m/s 754 mmHg 93%
    01:00 +16°C° 0 mm 3 m/s 754 mmHg 93%
    02:00 +16°C° 0 mm 3 m/s 753 mmHg 93%
    03:00 +16°C° 0 mm 3 m/s 753 mmHg 93%
    04:00 +15°C° 0 mm 4 m/s 752 mmHg 94%
    05:00 +17°C° 0 mm 4 m/s 752 mmHg 94%
    06:00 +17°C° 0 mm 5 m/s 751 mmHg 95%
    07:00 +17°C° 0 mm 5 m/s 751 mmHg 92%
    08:00 +19°C° 0 mm 6 m/s 750 mmHg 90%
    09:00 +20°C° 0 mm 6 m/s 750 mmHg 87%
    10:00 +20°C° 0 mm 7 m/s 750 mmHg 84%
    11:00 +21°C° 0 mm 7 m/s 749 mmHg 80%
    12:00 +22°C° 0 mm 8 m/s 749 mmHg 77%
    13:00 +21°C° 0 mm 8 m/s 749 mmHg 78%
    14:00 +21°C° 0 mm 9 m/s 749 mmHg 79%
    15:00 +19°C° 0 mm 9 m/s 748 mmHg 80%
    16:00 +19°C° 0 mm 9 m/s 748 mmHg 79%
    17:00 +18°C° 0 mm 9 m/s 748 mmHg 78%
    18:00 +18°C° 0 mm 9 m/s 748 mmHg 76%
    19:00 +17°C° 0 mm 8 m/s 748 mmHg 78%
    20:00 +16°C° 0 mm 8 m/s 748 mmHg 80%
    21:00 +15°C° 0 mm 7 m/s 748 mmHg 82%
    22:00 +15°C° 0 mm 7 m/s 748 mmHg 83%
    23:00 +15°C° 0 mm 7 m/s 747 mmHg 84%
    Mostrar mais